• In Hungary
  • List of Countries
  • For 7 days
  • Water Temperature
  • Satellite Maps
  • Weather Map
  • News
  • Weather Widgets
  • user-avatar
    Login

    Hourly Weather Podshibalovka

    Today, 25 June, Monday

    Time Temperature Precipitation Wind Pressure Humidity
    00:00 +24°C° 0 mm 3 mps 752 mmHg 58%
    01:00 +22°C° 0 mm 3 mps 752 mmHg 59%
    02:00 +22°C° 0 mm 3 mps 752 mmHg 61%
    03:00 +21°C° 0 mm 3 mps 752 mmHg 62%
    04:00 +22°C° 0 mm 3 mps 752 mmHg 62%
    05:00 +24°C° 0 mm 3 mps 753 mmHg 62%
    06:00 +25°C° 0 mm 3 mps 753 mmHg 62%
    07:00 +26°C° 0 mm 3 mps 753 mmHg 56%
    08:00 +28°C° 0 mm 3 mps 753 mmHg 51%
    09:00 +30°C° 0 mm 2 mps 753 mmHg 45%
    10:00 +31°C° 0 mm 2 mps 753 mmHg 42%
    11:00 +32°C° 0 mm 2 mps 753 mmHg 39%
    12:00 +34°C° 0 mm 2 mps 753 mmHg 35%
    13:00 +34°C° 0 mm 2 mps 753 mmHg 34%
    14:00 +35°C° 0 mm 2 mps 753 mmHg 33%
    15:00 +35°C° 0 mm 2 mps 753 mmHg 32%
    16:00 +35°C° 0 mm 2 mps 753 mmHg 35%
    17:00 +34°C° 0 mm 2 mps 753 mmHg 37%
    18:00 +33°C° 0 mm 1 mps 753 mmHg 40%
    19:00 +31°C° 0 mm 2 mps 753 mmHg 43%
    20:00 +29°C° 0 mm 2 mps 753 mmHg 46%
    21:00 +27°C° 0 mm 2 mps 753 mmHg 49%
    22:00 +26°C° 0 mm 2 mps 753 mmHg 51%
    23:00 +26°C° 0 mm 2 mps 753 mmHg 53%

    Tomorrow, 26 June, Tuesday

    Time Temperature Precipitation Wind Pressure Humidity
    00:00 +25°C° 0 mm 2 mps 753 mmHg 55%
    01:00 +25°C° 0 mm 2 mps 753 mmHg 56%
    02:00 +24°C° 0 mm 2 mps 753 mmHg 57%
    03:00 +24°C° 0 mm 1 mps 753 mmHg 59%
    04:00 +25°C° 0 mm 1 mps 753 mmHg 58%
    05:00 +25°C° 0 mm 1 mps 753 mmHg 57%
    06:00 +26°C° 0 mm 1 mps 754 mmHg 56%
    07:00 +28°C° 0 mm 1 mps 754 mmHg 52%
    08:00 +30°C° 0 mm 2 mps 754 mmHg 48%
    09:00 +31°C° 0 mm 2 mps 754 mmHg 44%
    10:00 +32°C° 0 mm 2 mps 754 mmHg 42%
    11:00 +34°C° 0 mm 2 mps 753 mmHg 40%
    12:00 +35°C° 0 mm 2 mps 753 mmHg 39%
    13:00 +35°C° 0 mm 3 mps 753 mmHg 40%
    14:00 +35°C° 0 mm 3 mps 753 mmHg 40%
    15:00 +35°C° 0 mm 3 mps 753 mmHg 41%
    16:00 +34°C° 0 mm 3 mps 753 mmHg 45%
    17:00 +34°C° 0 mm 3 mps 753 mmHg 48%
    18:00 +33°C° 0 mm 3 mps 753 mmHg 51%
    19:00 +31°C° 0 mm 3 mps 753 mmHg 56%
    20:00 +29°C° 0 mm 3 mps 753 mmHg 61%
    21:00 +27°C° 0 mm 3 mps 753 mmHg 65%
    22:00 +26°C° 0 mm 4 mps 753 mmHg 69%
    23:00 +26°C° 0 mm 4 mps 753 mmHg 73%

    Day after tomorrow, 27 June, Wednesday

    Time Temperature Precipitation Wind Pressure Humidity
    00:00 +25°C° 0 mm 4 mps 753 mmHg 77%
    01:00 +24°C° 0.1 mm 3 mps 753 mmHg 80%
    02:00 +24°C° 0.1 mm 3 mps 753 mmHg 83%
    03:00 +22°C° 0.1 mm 3 mps 753 mmHg 87%
    04:00 +24°C° 0 mm 3 mps 753 mmHg 84%
    05:00 +25°C° 0 mm 3 mps 753 mmHg 82%
    06:00 +25°C° 0 mm 4 mps 753 mmHg 79%
    07:00 +27°C° 0 mm 4 mps 753 mmHg 72%
    08:00 +28°C° 0 mm 4 mps 753 mmHg 65%
    09:00 +30°C° 0 mm 4 mps 753 mmHg 57%
    10:00 +32°C° 0 mm 4 mps 753 mmHg 53%
    11:00 +33°C° 0 mm 4 mps 753 mmHg 48%
    12:00 +34°C° 0 mm 4 mps 752 mmHg 44%
    13:00 +34°C° 0 mm 4 mps 752 mmHg 43%
    14:00 +34°C° 0 mm 4 mps 752 mmHg 43%
    15:00 +34°C° 0 mm 4 mps 752 mmHg 43%
    16:00 +34°C° 0 mm 4 mps 752 mmHg 47%
    17:00 +33°C° 0 mm 4 mps 752 mmHg 51%
    18:00 +32°C° 0 mm 4 mps 752 mmHg 56%
    19:00 +29°C° 0.1 mm 4 mps 752 mmHg 63%
    20:00 +28°C° 0.1 mm 4 mps 752 mmHg 70%
    21:00 +26°C° 0.1 mm 4 mps 752 mmHg 77%
    22:00 +25°C° 0 mm 4 mps 752 mmHg 80%
    23:00 +25°C° 0 mm 3 mps 752 mmHg 84%

    28 June, Thursday

    Time Temperature Precipitation Wind Pressure Humidity
    00:00 +24°C° 0 mm 3 mps 752 mmHg 87%
    01:00 +22°C° 0 mm 3 mps 752 mmHg 89%
    02:00 +22°C° 0 mm 3 mps 752 mmHg 90%
    03:00 +21°C° 0 mm 3 mps 752 mmHg 92%
    04:00 +22°C° 0 mm 3 mps 752 mmHg 88%
    05:00 +24°C° 0 mm 3 mps 752 mmHg 84%
    06:00 +23°C° 0 mm 4 mps 752 mmHg 81%
    07:00 +26°C° 0 mm 4 mps 752 mmHg 75%
    08:00 +28°C° 0 mm 4 mps 752 mmHg 69%
    09:00 +29°C° 0 mm 4 mps 752 mmHg 62%
    10:00 +30°C° 0 mm 4 mps 752 mmHg 58%
    11:00 +32°C° 0 mm 4 mps 752 mmHg 54%
    12:00 +33°C° 0 mm 4 mps 751 mmHg 50%
    13:00 +33°C° 0 mm 4 mps 751 mmHg 49%
    14:00 +33°C° 0 mm 4 mps 751 mmHg 49%
    15:00 +33°C° 0 mm 5 mps 751 mmHg 49%
    16:00 +33°C° 0 mm 5 mps 751 mmHg 52%
    17:00 +32°C° 0 mm 5 mps 751 mmHg 54%
    18:00 +30°C° 0 mm 5 mps 751 mmHg 57%
    19:00 +28°C° 0.1 mm 5 mps 751 mmHg 62%
    20:00 +27°C° 0.1 mm 5 mps 752 mmHg 67%
    21:00 +25°C° 0.1 mm 4 mps 752 mmHg 72%
    22:00 +23°C° 0 mm 4 mps 752 mmHg 75%
    23:00 +23°C° 0 mm 4 mps 752 mmHg 77%

    29 June, Friday

    Time Temperature Precipitation Wind Pressure Humidity
    00:00 +22°C° 0 mm 4 mps 752 mmHg 80%
    01:00 +21°C° 0 mm 4 mps 752 mmHg 82%
    02:00 +21°C° 0 mm 4 mps 752 mmHg 84%
    03:00 +21°C° 0 mm 4 mps 752 mmHg 86%
    04:00 +21°C° 0 mm 4 mps 752 mmHg 82%
    05:00 +22°C° 0 mm 4 mps 752 mmHg 79%
    06:00 +23°C° 0 mm 5 mps 752 mmHg 75%
    07:00 +25°C° 0 mm 5 mps 752 mmHg 67%
    08:00 +27°C° 0 mm 5 mps 752 mmHg 58%
    09:00 +28°C° 0 mm 5 mps 752 mmHg 50%
    10:00 +29°C° 0 mm 5 mps 752 mmHg 46%
    11:00 +30°C° 0 mm 5 mps 752 mmHg 42%
    12:00 +32°C° 0 mm 5 mps 752 mmHg 37%
    13:00 +32°C° 0 mm 5 mps 752 mmHg 36%
    14:00 +32°C° 0 mm 5 mps 752 mmHg 35%
    15:00 +33°C° 0 mm 5 mps 752 mmHg 35%
    16:00 +32°C° 0 mm 4 mps 752 mmHg 39%
    17:00 +30°C° 0 mm 4 mps 752 mmHg 43%
    18:00 +30°C° 0 mm 3 mps 752 mmHg 47%
    19:00 +28°C° 0 mm 3 mps 752 mmHg 51%
    20:00 +26°C° 0 mm 4 mps 752 mmHg 56%
    21:00 +23°C° 0 mm 4 mps 752 mmHg 60%
    22:00 +23°C° 0 mm 4 mps 752 mmHg 62%
    23:00 +22°C° 0 mm 4 mps 752 mmHg 63%

    30 June, Saturday

    Time Temperature Precipitation Wind Pressure Humidity
    00:00 +22°C° 0 mm 4 mps 753 mmHg 65%
    01:00 +21°C° 0 mm 4 mps 753 mmHg 68%
    02:00 +20°C° 0 mm 3 mps 753 mmHg 71%
    03:00 +19°C° 0 mm 3 mps 753 mmHg 74%
    04:00 +20°C° 0 mm 3 mps 753 mmHg 73%
    05:00 +20°C° 0 mm 4 mps 753 mmHg 72%
    06:00 +21°C° 0 mm 4 mps 753 mmHg 70%
    07:00 +23°C° 0 mm 4 mps 753 mmHg 64%
    08:00 +25°C° 0 mm 5 mps 753 mmHg 58%
    09:00 +27°C° 0 mm 5 mps 754 mmHg 51%
    10:00 +28°C° 0 mm 4 mps 753 mmHg 47%
    11:00 +29°C° 0 mm 4 mps 753 mmHg 43%
    12:00 +30°C° 0 mm 4 mps 753 mmHg 39%
    13:00 +30°C° 0 mm 3 mps 753 mmHg 38%
    14:00 +31°C° 0 mm 3 mps 753 mmHg 37%
    15:00 +31°C° 0 mm 3 mps 753 mmHg 36%
    16:00 +31°C° 0 mm 3 mps 753 mmHg 39%
    17:00 +30°C° 0 mm 3 mps 753 mmHg 42%
    18:00 +30°C° 0 mm 3 mps 752 mmHg 45%
    19:00 +28°C° 0 mm 3 mps 752 mmHg 50%
    20:00 +26°C° 0 mm 3 mps 753 mmHg 56%
    21:00 +24°C° 0 mm 3 mps 753 mmHg 61%
    22:00 +24°C° 0 mm 3 mps 753 mmHg 63%
    23:00 +22°C° 0 mm 3 mps 753 mmHg 65%
    Show more